Port Hope, MI

7:18 PM EDT on June 23, 2017 (GMT -0400)
Port Hope

Weather History for KP58 - April, 2013

Change the Weather History Date:

Tuesday, April 23, 2013

  Actual Average Record
Temperature  
Mean Temperature 52 °F -  
Max Temperature 61 °F 50 °F 73 °F (2007)
Min Temperature 39 °F 36 °F 28 °F (2002)
Degree Days  
Heating Degree Days 14    
Growing Degree Days 2 (Base 50)    
Moisture  
Dew Point 39 °F    
Average Humidity 63    
Maximum Humidity 93    
Minimum Humidity 49    
Precipitation  
Precipitation 0.24 in - - ()
Sea Level Pressure  
Sea Level Pressure 29.98 in    
Wind  
Wind Speed 7 mph (SSE)    
Max Wind Speed 14 mph    
Max Gust Speed 23 mph    
Averages and records for this station are not official NWS values.
T = Trace of Precipitation, MM = Missing Value Source: NWS Daily Summary

Daily Weather History Graph

Daily Weather History Graph

Search for Another Location

Airport or City:

Trip Planner

Search our weather history database for the weather conditions in past years. The results will help you decide how hot, cold, wet, or windy it might be!

Date:

Astronomy

Apr. 23, 2013 Rise Set
Actual Time 6:34 AM EDT 8:25 PM EDT
Civil Twilight 6:03 AM EDT 8:56 PM EDT
Nautical Twilight 5:26 AM EDT 9:33 PM EDT
Astronomical Twilight 4:45 AM EDT 10:15 PM EDT
Moon 6:15 PM EDT 5:06 AM EDT
Length of Visible Light 14h 52m
Length of Day
13h 50m
Waxing Gibbous, 94% of the Moon is Illuminated
Apr 23
Waxing Gibbous
Apr 25
Full
May 2
Last Quarter
May 9
New
May 18
First Quarter

Hourly Weather History & Observations

Time (EDT) Temp. Windchill Dew Point Humidity Pressure Visibility Wind Dir Wind Speed Gust Speed Precip Events Conditions
12:51 AM 43.0 °F 39.5 °F 34.0 °F 71% 30.21 in - SSE 5.8 mph - N/A   Unknown
1:51 AM 44.1 °F 39.5 °F 34.0 °F 68% 30.19 in - SSE 8.1 mph - N/A   Unknown
2:51 AM 44.1 °F 40.8 °F 33.1 °F 65% 30.16 in - SSE 5.8 mph - N/A   Unknown
3:51 AM 43.0 °F 39.5 °F 32.0 °F 65% 30.13 in - SSE 5.8 mph - N/A   Unknown
4:51 AM 43.0 °F 38.8 °F 32.0 °F 65% 30.11 in - SSE 6.9 mph - N/A   Unknown
5:51 AM 43.0 °F 38.2 °F 32.0 °F 65% 30.09 in - SSE 8.1 mph - N/A   Unknown
6:51 AM 44.1 °F 38.6 °F 32.0 °F 63% 30.06 in - SSE 10.4 mph - N/A   Unknown
7:51 AM 46.9 °F - 32.0 °F 56% 30.06 in - SSE 10.4 mph 20.7 mph N/A   Unknown
8:51 AM 48.0 °F - 33.1 °F 56% 30.06 in - SSE 10.4 mph 19.6 mph N/A   Unknown
9:51 AM 52.0 °F - 34.0 °F 50% 30.05 in - South 9.2 mph 21.9 mph N/A   Unknown
10:51 AM 55.0 °F - 37.0 °F 51% 30.01 in - SSE 8.1 mph 23.0 mph N/A   Unknown
11:51 AM 55.9 °F - 41.0 °F 57% 29.99 in - SE 13.8 mph 20.7 mph N/A   Unknown
12:51 PM 60.1 °F - 43.0 °F 53% 29.98 in - SSE 10.4 mph - N/A   Unknown
1:51 PM 57.9 °F - 42.1 °F 56% 29.95 in - SE 9.2 mph - N/A   Unknown
2:51 PM 57.9 °F - 42.1 °F 56% 29.94 in - SSE 8.1 mph - N/A   Unknown
3:51 PM 57.9 °F - 42.1 °F 56% 29.89 in - SSE 9.2 mph 17.3 mph N/A   Unknown
4:51 PM 59.0 °F - 43.0 °F 55% 29.87 in - SSE 6.9 mph - N/A   Unknown
5:51 PM 60.1 °F - 42.1 °F 51% 29.85 in - Variable 4.6 mph - N/A   Unknown
6:51 PM 59.0 °F - 41.0 °F 51% 29.82 in - SSE 6.9 mph - N/A   Unknown
7:51 PM 59.0 °F - 39.9 °F 49% 29.82 in - Variable 4.6 mph - N/A   Unknown
8:51 PM 54.0 °F - 50.0 °F 86% 29.83 in - Calm Calm - 0.03 in   Unknown
9:51 PM 54.0 °F - 51.1 °F 90% 29.81 in - SSE 5.8 mph - 0.05 in   Unknown
10:51 PM 54.0 °F - 51.1 °F 90% 29.79 in - SSE 5.8 mph - 0.04 in   Unknown
11:51 PM 39.9 °F 35.1 °F 37.9 °F 93% 29.86 in - NNW 6.9 mph - 0.12 in   Unknown